Tracking 20382 objects as of 24-Feb-2020
HD Live streaming from Space Station
objects crossing your sky now
Track the group of recently launched Starlink satellites

NNSS 19 (TRANSIT 19)

Track NNSS 19 (TRANSIT 19) now!
10-day predictions
NNSS 19 (TRANSIT 19) is classified as:


NORAD ID: 4507
Int'l Code: 1970-067A
Perigee: 949.7 km
Apogee: 1,203.7 km
Inclination: 89.9 °
Period: 106.6 minutes
Semi major axis: 7447 km
RCS: 1.5637 m2 (large)
Launch date: August 27, 1970
Source: United States (US)
Launch site: AIR FORCE WESTERN TEST RANGE (AFWTR)
aabbcc
Your satellite tracking list
Your tracking list is empty




NASA's NSSDC Master Catalog

Two Line Element Set (TLE):
1  4507U 70067A   20055.09340760  .00000066  00000-0  82509-4 0  9997
2  4507  89.8687 248.1311 0170542 308.8906  49.7137 13.50733608436568
Source of the keplerian elements: AFSPC